STARLINK-32304

Last updated on Sat Sep 28 2024 00:02:03 GMT+0000 (Coordinated Universal Time)

1 60738U 24152U 24271.58334491 -.01511100 00000+0 -41164-1 0 9998 2 60738 53.1604 201.7513 0001191 84.3311 171.5028 15.40120446 6047
UTC large
Height (km)
Speed (km/s)
/
Latitude / Longitude
Inclination (degrees)
Orbital Period (minutes)
Azimuth
Elevation
Range (km)
Doppler Factor

Next 0 passes for location: London (51.5072 / 0.1276)

Sorry there are no passes over London.